Oakland, CA

12:27 AM PDT on September 27, 2016 (GMT -0700)
Metro Oakland International

Weather History for KOAK - June, 2013

Change the Weather History Date:

Sunday, June 2, 2013

  Actual Average Record
Temperature  
Mean Temperature 59 °F 61 °F  
Max Temperature 67 °F 69 °F 107 °F (1960)
Min Temperature 51 °F 53 °F 46 °F (1955)
Degree Days  
Heating Degree Days 6 5  
Month to date heating degree days 6 10  
Since 1 June heating degree days 6 10  
Since 1 July heating degree days 2377 2780  
Cooling Degree Days 0 0  
Month to date cooling degree days 1 0  
Year to date cooling degree days 42 16  
Since 1 June cooling degree days 1 0  
Growing Degree Days 10 (Base 50)    
Moisture  
Dew Point 54 °F    
Average Humidity 79    
Maximum Humidity 100    
Minimum Humidity 58    
Precipitation  
Precipitation 0.00 in 0.01 in 0.91 in (1967)
Month to date precipitation 0.00 0.02  
Year to date precipitation 2.65 13.06  
Since 1 July precipitation 13.64  
Sea Level Pressure  
Sea Level Pressure 29.77 in    
Wind  
Wind Speed 5 mph (WNW)    
Max Wind Speed 17 mph    
Max Gust Speed 21 mph    
Visibility 10 miles    
Events      
T = Trace of Precipitation, MM = Missing Value Source: NWS Daily Summary

Daily Weather History Graph

Daily Weather History Graph

Search for Another Location

Airport or City:

Trip Planner

Search our weather history database for the weather conditions in past years. The results will help you decide how hot, cold, wet, or windy it might be!

Date:

Astronomy

Jun. 02, 2013 Rise Set
Actual Time 5:48 AM PDT 8:25 PM PDT
Civil Twilight 5:17 AM PDT 8:56 PM PDT
Nautical Twilight 4:39 AM PDT 9:35 PM PDT
Astronomical Twilight 3:56 AM PDT 10:17 PM PDT
Moon 2:12 AM PDT (6/2) 3:07 PM PDT (6/2)
Length of Visible Light 15h 39m
Length of Day
14h 37m
Waning Crescent, 30% of the Moon is Illuminated
Jun 2
Waning Crescent
Jun 8
New
Jun 16
First Quarter
Jun 23
Full
Jun 29
Last Quarter

Hourly Weather History & Observations

Time (PDT) Temp. Dew Point Humidity Pressure Visibility Wind Dir Wind Speed Gust Speed Precip Events Conditions
12:53 AM 57.0 °F 54.0 °F 89% 29.82 in 10.0 mi Calm Calm - N/A   Clear
1:53 AM 55.9 °F 55.0 °F 97% 29.81 in 10.0 mi WNW 4.6 mph - N/A   Clear
2:53 AM 55.0 °F 55.0 °F 100% 29.80 in 10.0 mi WNW 4.6 mph - N/A   Clear
3:53 AM 54.0 °F 54.0 °F 100% 29.79 in 10.0 mi Calm Calm - N/A   Partly Cloudy
4:53 AM 54.0 °F 54.0 °F 100% 29.79 in 10.0 mi Calm Calm - N/A   Scattered Clouds
5:17 AM 53.6 °F 53.6 °F 100% 29.79 in 10.0 mi Calm Calm - N/A   Mostly Cloudy
5:53 AM 54.0 °F 54.0 °F 100% 29.80 in 10.0 mi Calm Calm - N/A   Mostly Cloudy
6:14 AM 55.4 °F 55.4 °F 100% 29.80 in 10.0 mi Calm Calm - N/A   Scattered Clouds
6:53 AM 57.0 °F 57.0 °F 100% 29.80 in 10.0 mi Calm Calm - N/A   Scattered Clouds
7:53 AM 57.9 °F 55.9 °F 93% 29.81 in 10.0 mi West 4.6 mph - N/A   Partly Cloudy
8:53 AM 57.9 °F 55.9 °F 93% 29.81 in 10.0 mi SW 4.6 mph - N/A   Partly Cloudy
9:53 AM 60.1 °F 55.0 °F 83% 29.80 in 10.0 mi SW 4.6 mph - N/A   Partly Cloudy
10:53 AM 61.0 °F 55.0 °F 81% 29.79 in 10.0 mi WSW 6.9 mph - N/A   Partly Cloudy
11:53 AM 64.0 °F 55.0 °F 73% 29.78 in 10.0 mi WNW 8.1 mph - N/A   Partly Cloudy
12:53 PM 66.0 °F 53.1 °F 63% 29.76 in 10.0 mi West 10.4 mph - N/A   Partly Cloudy
1:53 PM 66.9 °F 52.0 °F 59% 29.75 in 10.0 mi West 13.8 mph - N/A   Clear
2:53 PM 66.0 °F 53.1 °F 63% 29.75 in 10.0 mi West 16.1 mph - N/A   Clear
3:53 PM 64.9 °F 53.1 °F 65% 29.75 in 10.0 mi West 13.8 mph - N/A   Partly Cloudy
4:53 PM 63.0 °F 53.1 °F 70% 29.74 in 10.0 mi WNW 10.4 mph - N/A   Partly Cloudy
5:53 PM 62.1 °F 52.0 °F 70% 29.73 in 10.0 mi WSW 5.8 mph - N/A   Partly Cloudy
6:53 PM 60.1 °F 55.0 °F 83% 29.73 in 10.0 mi West 6.9 mph - N/A   Partly Cloudy
7:53 PM 57.9 °F 55.0 °F 90% 29.73 in 10.0 mi NW 3.5 mph - N/A   Partly Cloudy
8:53 PM 55.9 °F 55.0 °F 97% 29.74 in 10.0 mi NNW 4.6 mph - N/A   Partly Cloudy
9:53 PM 55.0 °F 55.0 °F 100% 29.75 in 10.0 mi Calm Calm - N/A   Clear
10:53 PM 54.0 °F 54.0 °F 100% 29.76 in 10.0 mi NNW 3.5 mph - N/A   Clear
11:53 PM 54.0 °F 54.0 °F 100% 29.76 in 10.0 mi North 3.5 mph - N/A   Clear